Starlink 32380

operational
NORAD ID: 61069 Int'l Des: 2024-164 Owner: SPXS Country: US Constellation: starlink
LEOCIRCULAR

About Starlink 32380

Description loading...

Live Position

Loading 3D Globe...

Upcoming Passes

Altitude History

Altitude vs Time

uPlot chart will show altitude changes over time

Two-Line Element Set

1 61069U 24164V 25259.08231849 .00000273 00000-0 21346-4 0 9999
2 61069 53.1597 182.2058 0001120 75.2161 284.8964 15.30196742 56747
Epoch: Sep 16, 2025 • Age: 17 hours

Current Status

Altitude 490.2 km
Velocity 7.62 km/s
Sub-Earth Point -42.58°S, 125.95°E
Launch Date Sep 13, 2024
Age 1 years
Type internet

Technical Details

Classification Payload
Mass 730.00 kg
Dry Mass 700.00 kg
Total Mass 730.00 kg
Length 0.30 m
Diameter 4.10 m
Span 29.00 m
Shape Box + pan
Manufacturer SPXS
Bus Type Starlink V2M
Phase Status In Orbit
Owner/State SPXS/US

Large Constellations

Loading constellations...